Details From GMMN - Casablanca Mohammed V Intl
To GMMX - Menara
Flight Number -
Tags Standard
Created
Modified
Stats Distance 112 nm / 207 km
Max Altitude 0 ft / 0 m
Waypoints 3
Social Downloads 5
Likes 0
Share VATSIM

Download

Looking for another format? Having issues loading an existing format? Contact us
Advertisement - Login to hide

Notes

None

Route

GMMN MAK GMMX

ID Type Via Altitude Latitude Longitude Leg Dist Tot Dist Heading (true) Name
O GMMN APT - 0 ft / 0 m 33.38306˚ -7.59743˚ - 0 nm - -
MAK VOR - 0 ft / 0 m 31.61278˚ -8.10306˚ 109 nm 109 nm 194° / 193° MARRAKECH VOR-DME
O GMMX APT - 0 ft / 0 m 31.60837˚ -8.05254˚ 2 nm 111 nm 96° / 96° -

Altitude Profile

Advertisement - Login to hide

GMMN

Details ICAO GMMN (CMN)
Name Casablanca Mohammed V Intl
Region Morocco
Timezone Africa/Casablanca (UTC+0.0)
Stats Elevation 656 ft / 200 m (AMSL)
Location 33.367466° -7.589964°
Runways 2
Magnetic Variation 1.817° W

METAR

GMMN 122030Z 07005KT CAVOK 10/07 Q1022 NOSIG

Decode

TAF

TAF GMMN 121700Z 1218/1324 02010KT 9999 BKN016 TEMPO 1304/1308 5000 BECMG 1309/1312 36010KT

Decode

Departure Runways

ID Width Length Bearing (true) Bearing (mag) Surface Threshold Offset Overrun Length
17L 148 ft / 45 m 12,224 ft / 3,726 m 164.03° 165.85° Asphalt 0 ft / 0 m 295 ft / 90 m
17R 148 ft / 45 m 12,196 ft / 3,717 m 164.03° 165.85° Asphalt 0 ft / 0 m 197 ft / 60 m
35L 148 ft / 45 m 12,196 ft / 3,717 m 344.04° 345.86° Asphalt 0 ft / 0 m 180 ft / 55 m
35R 148 ft / 45 m 12,224 ft / 3,726 m 344.04° 345.86° Asphalt 0 ft / 0 m 995 ft / 303 m

GMMX

Details ICAO GMMX (RAK)
Name MENARA
Region Morocco
Timezone Africa/Casablanca (UTC+0.0)
Stats Elevation 1,545 ft / 471 m (AMSL)
Location 31.606920° -8.036265°
Runways 1
Magnetic Variation 2.000° W

METAR

GMMX 122030Z 03007KT 9999 FEW023 09/04 Q1019 NOSIG

Decode

TAF

TAF GMMX 121700Z 1218/1324 08008KT 8000 BKN020 PROB30 TEMPO 1304/1310 4000 BR BKN013

Decode

Destination Runways

ID Width Length Bearing (true) Bearing (mag) Surface Threshold Offset Overrun Length
10 148 ft / 45 m 10,169 ft / 3,100 m 95.99° 97.99° Asphalt 918 ft / 280 m 0 ft / 0 m
28 148 ft / 45 m 10,169 ft / 3,100 m 276.00° 278.00° Asphalt 0 ft / 0 m 0 ft / 0 m

Approach Navaids

Runway Type Ident Frequency Range Bearing (true) Bearing (mag) Slope Elevation
10 Localiser MAR 109.70 MHz 18 nm / 33 km 96.03° 98.02° - 1,545 ft / 471 m (AMSL)
10 Glidescope MAR 109.70 MHz 10 nm / 19 km 96.00° 98.00° 3.00° 1,558 ft / 475 m (AMSL)

Popular Alternatives